ECMWFNIL_con_mucape_021.txt.gz
CAPE
3710 3782 3664 3492 3227 2860 2750 2749 2774 2757 2744 2321 2345 2068 1788 1624 1417 1174 990 1101 1099 883 729 719 477 591 453 304 298 273 302 241 216 118 214 280 216 56 61 36 49 94
3891 3831 3839 3452 3490 3258 3052 2926 2955 2936 2750 2512 2211 2080 1893 1694 1358 1141 1328 1140 1272 942 790 715 724 624 378 136 195 188 304 324 183 140 144 209 210 168 90 86 93 130
4110 4019 3711 3552 3378 3341 3107 3068 3013 2956 2698 2477 2282 2252 2210 1981 1732 1414 1305 1206 1197 802 718 761 704 553 356 261 290 285 324 372 235 124 181 143 194 93 242 26 24 81
4538 4226 3846 3673 3462 3322 3353 3130 3178 3128 2576 2308 2312 2285 2110 1944 1588 1396 1396 1125 978 610 602 712 612 475 467 365 456 388 359 335 277 149 106 200 285 317 208 204 185 56
4630 4588 4269 3920 3753 3564 3569 3457 3138 2996 2808 2327 2431 2462 2487 2020 1743 1515 1325 977 729 568 708 692 592 625 496 415 390 475 364 290 355 394 304 250 337 273 271 198 191 117
4947 5003 4698 4245 3906 3852 3675 3596 3443 2980 2959 2125 2571 2464 2314 2042 1561 1459 1190 842 488 507 657 717 658 606 501 440 583 594 339 238 189 171 118 155 206 137 96 78 85 98
4926 5079 4958 4360 4099 3931 3874 3832 3926 3414 3094 2372 2704 2672 2400 1850 1487 1288 1121 805 419 612 630 676 864 700 604 558 815 770 789 586 378 313 238 248 252 196 46 28 102 168
4699 5084 5050 4648 4272 4112 4144 4190 4001 3714 3438 2934 3076 2826 2181 1771 1411 1092 997 813 578 630 835 828 1081 915 524 642 550 669 720 474 445 477 383 360 420 281 215 163 180 227
4698 5092 5113 4793 4403 4134 4001 3874 3910 3610 3477 3125 3112 2547 2135 1847 1556 997 952 865 710 808 810 916 1231 878 729 663 606 590 756 552 526 614 493 353 265 302 255 245 270 344
4964 4964 4861 4762 4422 4182 3793 3534 3210 3370 3478 3252 3040 2489 2128 1955 1691 1056 971 948 755 917 968 812 929 903 837 774 593 476 575 999 996 681 504 410 284 348 326 284 294 360
4907 4628 4834 4810 4268 3786 3630 3264 2553 2964 3331 3083 2856 2298 2241 1812 1646 1140 1033 1002 902 1098 789 682 806 853 927 650 489 402 653 809 838 639 474 388 358 335 270 349 393 358
4756 4711 4858 4473 3860 3558 3381 3060 2468 3157 3246 2970 2668 2330 2254 1832 1548 1015 1098 1406 1469 858 634 1028 844 988 934 556 262 304 642 700 652 532 438 440 357 286 324 354 433 464
4961 4822 4587 4458 4135 3533 3442 3069 2584 2760 2732 2748 2512 2268 2129 1934 1234 1099 1255 1634 996 276 521 1128 684 735 541 503 400 520 711 646 494 448 428 431 314 284 334 361 352 364
5020 5146 5168 4746 4017 3922 3773 3289 2864 2250 2054 2495 2601 2111 1749 1630 1187 1209 1510 1609 832 554 1209 1293 992 358 319 597 565 456 518 644 740 582 370 390 372 386 417 290 218 249
5605 5447 4937 4678 4218 4148 3776 3532 3322 2784 2151 2059 2672 2407 1780 1440 1479 1561 1723 1508 1510 1398 1442 968 466 219 471 612 515 509 562 660 796 764 499 452 498 570 572 463 354 314
5482 5154 5034 4881 4447 4171 3992 3821 3305 2871 2298 2328 2528 2446 1898 1274 1822 1723 1482 1052 840 1020 674 316 332 412 252 29 238 633 793 701 742 640 650 607 614 674 604 457 478 402
5370 5023 4815 4687 4345 4156 4056 3874 3487 3133 3191 3366 2768 2243 1830 1766 1243 1029 1178 990 1419 1196 615 330 182 56 7 0 0 482 732 833 633 648 676 769 795 776 726 690 644 612
5157 4853 4818 4698 4415 4236 3928 3713 3490 3307 2985 2639 2407 2066 1867 1680 1345 1484 1247 1052 762 422 329 271 222 60 0 0 0 357 550 916 602 669 730 838 830 701 652 672 614 592
5055 4927 4813 4295 4074 3957 3867 3704 3556 3356 3136 2864 2572 2257 2032 2047 1640 1573 1578 1496 1285 676 409 340 392 404 342 63 0 279 434 495 598 620 525 580 493 430 420 468 790 2005
4881 4880 4744 4410 3979 3691 3414 3221 3266 3238 2896 2597 2482 2407 2586 2299 1870 1859 1852 1768 1658 1487 1084 782 555 440 502 345 105 112 287 223 404 352 366 380 420 346 278 492 1815 1120
4840 4714 4708 4221 3867 3427 3167 2984 3031 3129 2990 2633 2275 2235 2276 1938 1921 1877 1838 1795 1754 1697 1443 1240 1024 656 646 470 172 53 140 59 488 595 590 508 517 409 400 474 1127 1339
4833 4622 4614 4176 3305 3232 3182 3070 2936 3029 2930 2629 2229 1973 1845 1850 1852 1813 1814 1813 1744 1639 1489 1264 831 813 598 576 356 109 36 104 558 1020 964 694 704 649 690 1214 1696 1241
4953 4654 4467 4034 3497 3218 3111 3063 3056 2884 2682 2514 2354 1824 1802 1818 1804 1804 1766 1757 1697 1585 1400 1160 1054 783 650 585 454 68 34 416 818 1125 1222 1094 1024 1261 1405 1910 1705 1536
4972 4670 4451 4035 3704 3394 3121 2611 2723 2514 2402 2447 2243 1825 1701 1768 1739 1723 1673 1658 1597 1512 1368 1272 1034 1936 749 659 481 270 42 783 1141 1270 1383 1624 1697 1610 1894 1823 1524 1294
4943 4606 4499 4174 3893 3445 2865 2688 2643 2543 2356 2109 1814 1710 1736 1611 1484 1478 1566 1576 1511 1420 1381 1305 1122 1042 804 703 610 336 294 927 1318 1289 1738 1620 1539 1692 1630 1512 1725 1230
4654 4536 4408 4215 3668 3323 2552 2618 2549 2189 2102 1974 1726 1474 1386 1259 1151 1294 1451 1410 1316 1333 1299 1178 1026 834 742 718 614 439 96 1231 1721 1336 899 1666 1629 1600 1664 1520 1012 823

ECMWFNIL_con_mucape_024.txt.gz
CAPE
4059 4219 4237 4184 4038 3377 3394 3556 3258 3166 3191 2883 2938 2606 2566 2477 2206 2206 2100 1754 1608 1399 1634 1339 1077 975 1057 927 672 835 1720 562 712 623 549 798 606 389 317 298 131 85
4061 4232 4102 4222 4191 3668 3790 3542 3353 3206 3345 3318 2954 2932 2963 2234 2409 2373 2130 1853 1553 1298 1523 1305 1047 1236 1087 879 892 820 970 851 536 591 627 564 702 585 182 238 272 548
4061 4121 4241 4023 4037 3774 2998 3369 3689 3460 3276 3212 3103 3066 2622 2336 1858 2163 2190 1782 1327 1101 1439 1284 1030 1199 982 1050 785 736 821 965 778 334 891 716 743 588 445 108 194 143
4145 4153 3872 3628 3607 3691 3204 3342 3708 3416 3275 2957 2926 2724 2381 1884 1858 1836 2121 1845 1660 1424 1240 1074 956 841 837 862 658 632 719 896 846 662 1170 1014 481 559 536 468 195 376
4277 4209 3954 3667 3525 3672 3574 3408 2887 3344 2896 2914 2755 2638 2521 2509 2211 1740 1838 1668 1730 1488 1300 1150 1204 875 820 702 869 657 738 866 819 867 800 1316 926 749 646 517 452 494
4362 4316 4238 3944 3602 3806 3678 3409 3132 3013 2890 2716 2762 2611 2626 2752 2167 1787 1668 1478 1491 1095 928 928 1042 759 828 721 945 914 670 544 579 906 906 699 844 532 522 687 679 499
4457 4488 4310 4007 3740 3793 3780 3552 3299 3103 2956 2529 2740 2647 2474 2564 2150 1877 1630 1463 1200 1102 775 778 895 854 790 798 763 884 947 688 643 786 658 699 750 721 416 580 788 644
4189 4297 4291 4044 3805 3772 3638 3632 3498 3314 3193 2893 2760 2779 2670 2399 2226 1945 1791 1589 1220 1002 866 974 1026 1048 877 840 794 824 850 684 714 1062 761 585 460 480 664 378 311 578
4442 4599 4454 4182 3724 3516 3028 3154 3550 3530 3364 3034 2692 2744 2752 2494 2292 1936 1846 1646 1094 920 1028 1153 1123 1067 955 931 817 893 780 684 659 892 914 686 670 648 621 600 532 606
4581 4713 4124 3857 3480 3178 2893 2817 2949 3297 3312 3182 2743 2509 2833 2678 2375 1920 1881 1590 1063 954 1080 1195 1210 1046 990 1007 968 922 809 744 649 687 645 634 573 578 623 640 588 587
4340 4430 4603 4298 3761 3325 3099 2903 3094 3221 3158 2988 2728 2416 2886 2794 2371 1924 1862 1552 1092 990 1048 1169 1210 1152 1117 903 1020 877 793 770 803 797 774 619 623 618 736 609 496 512
4060 4233 4500 4154 3952 3406 3172 3016 3075 3222 3363 3264 3016 2776 3105 2757 2374 1845 1703 1564 1169 1118 1066 1118 1202 1254 1238 937 888 828 789 781 892 1053 915 822 747 683 717 763 731 719
4188 4182 4455 4271 4202 3814 3406 3308 3106 3004 3105 3170 3058 2912 2838 2600 2398 1938 1625 1538 1208 1166 1111 1152 1281 1250 1216 1121 1011 951 835 822 830 900 834 803 712 627 532 586 597 706
4551 4244 4184 4467 4388 4226 3736 3404 3255 3019 3110 3521 3262 3144 2716 2570 2402 2105 1682 1480 1259 1188 1292 1290 1242 1210 1237 1229 1204 1099 867 781 790 842 728 674 635 618 470 354 460 508
4642 4412 4196 4382 4437 4552 4102 3762 3530 3211 3111 3672 3636 3312 2814 2544 2393 1985 1534 1556 1396 1254 1464 1224 998 1084 1154 1251 1259 959 736 694 832 835 705 601 617 574 516 480 490 491
4848 4675 4521 4606 4628 4676 4370 3964 3612 3438 3190 3651 3703 3420 3072 2698 2490 2162 1618 1606 1568 1552 1493 1174 794 896 938 1094 956 757 580 557 724 776 733 620 676 612 510 611 600 436
5171 5188 5002 4914 4918 4720 4428 4134 3902 3692 3454 3643 3722 3448 3096 2859 2805 2055 1731 1704 1951 1483 902 782 1202 1023 1015 859 585 434 408 502 685 866 960 874 728 729 712 734 738 746
5416 5559 5644 5419 5206 4949 4665 4360 4221 4103 3858 3639 3428 3531 3275 2976 2848 2231 1700 1980 1989 1330 931 1007 1103 1213 1200 1075 824 587 410 469 724 969 1076 989 820 759 846 898 866 782
5782 5990 5997 5914 5630 5212 4876 4682 4638 4472 4324 4175 3894 3668 3517 3173 2837 2400 2193 2159 2009 1494 1132 1324 1370 1440 1433 1309 1130 804 599 415 406 838 897 836 802 908 936 1052 1178 1064
6177 6212 6112 5971 5782 5496 5133 4938 4802 4479 4152 4106 3721 3514 3332 2949 2664 2550 2424 2302 1924 1745 1421 1500 1502 1700 1704 1578 1088 771 640 468 961 1064 677 519 872 941 899 844 1215 2214
6333 6110 5934 5880 5624 5351 5066 4949 4651 4500 4186 3699 3363 3101 3000 2765 2423 2297 2169 2091 1549 1570 1628 1570 1616 1627 1723 1712 854 632 506 488 500 826 1092 1014 846 546 380 575 2112 2010
6040 5898 5799 5511 5244 5024 4861 4697 4564 4512 4135 3828 3475 3256 2920 2901 2607 2146 2183 1739 1693 1662 1669 1766 1651 1722 1702 1724 1399 847 581 635 544 429 538 436 737 1023 950 1728 1838 2042
5870 5717 5402 5089 4852 4580 4376 4252 4200 4220 4101 3732 3313 3128 2972 3060 2812 2333 1889 1786 1784 1863 1846 1754 1737 1694 1674 1714 1654 1401 875 755 610 503 413 332 449 898 995 1450 2075 2105
5815 5662 5350 4932 4581 4259 4030 3786 3573 3633 3720 3606 3209 2658 2542 2508 2338 2392 2040 1824 1812 1862 1856 1806 1731 1673 1616 1543 1421 1266 994 820 632 549 556 389 434 784 991 1494 1999 2097
5505 5529 5230 4715 4416 4068 3626 3398 3148 3266 3073 3156 2869 2807 2445 2252 2244 1977 1836 1568 1336 1222 1296 1459 1622 1622 1528 1457 1320 1218 1063 915 752 691 541 334 532 773 1144 1888 1448 1439
5247 5237 5079 4676 4394 4047 3666 3577 3113 2698 2987 2671 2517 2515 2382 2091 2355 1833 1572 1278 1074 972 828 806 1113 2013 1488 1359 1244 1174 1112 1062 978 845 694 571 748 1033 768 702 808 710

ECMWFNIL_con_mucape_027.txt.gz
CAPE
2981 2950 2709 2460 2331 2433 2106 1802 2031 1965 1827 1788 1807 1405 1897 1468 1305 1428 1222 1356 1108 1313 884 221 56 2 40 321 300 335 200 81 188 78 134 60 34 89 145 0 52 0
3050 2994 2812 2524 2425 2342 2092 1813 2078 2067 1905 1730 1908 1630 1907 1521 1489 1435 1426 1155 1142 1087 832 462 132 56 76 124 127 414 260 104 276 226 101 251 32 14 54 1 6 0
3064 2976 2860 2746 2669 2342 2273 2188 2097 2252 2060 1964 1776 1934 1766 1639 1413 1548 1409 1222 1040 738 400 288 218 90 210 99 110 155 246 89 158 107 87 123 119 52 64 52 4 44
3052 2943 2869 2919 2852 2428 2368 2354 2169 2276 2187 2118 1905 1965 1790 1558 1508 1430 1455 1364 862 645 369 170 175 273 192 192 109 97 202 154 65 84 68 71 66 18 42 46 92 24
3007 2963 2862 2972 2984 2566 2432 2377 2265 2206 2300 2236 2041 1952 1937 1493 1482 1464 1255 1012 809 593 506 222 118 254 238 250 105 103 164 172 182 124 347 126 66 59 55 192 162 123
2974 2973 2956 2982 3006 2753 2475 2429 2375 2198 2254 2414 2197 1993 1908 1662 1272 1521 1251 929 808 650 606 381 182 232 228 348 90 94 156 138 148 160 155 392 88 36 50 130 170 108
3028 2939 3034 2966 2971 2924 2511 2466 2522 2308 2248 2286 2293 2141 1905 1716 1166 1420 1292 1042 905 794 612 518 434 346 292 197 194 79 113 174 121 174 124 138 242 97 78 58 32 3
3165 2983 3038 2980 2916 2939 2690 2411 2514 2464 2347 2199 2239 2230 1962 1719 1398 1034 1402 1172 1011 871 704 582 536 398 369 128 308 82 117 238 143 141 165 145 116 204 58 109 105 60
3253 3099 3068 2998 2908 2863 2822 2522 2397 2490 2401 2301 2160 2121 2040 1758 1507 1294 1192 1193 1003 795 689 631 559 501 414 185 251 174 120 217 204 124 105 132 84 53 94 81 128 194
3249 3222 3141 3078 2922 2822 2833 2688 2504 2408 2452 2348 2302 2099 2044 1874 1755 1467 1362 1186 965 772 746 672 571 534 485 383 167 202 173 183 159 127 107 90 82 51 60 105 50 33
3255 3245 3231 3179 3030 2829 2788 2769 2627 2491 2454 2386 2322 2270 2132 1990 1876 1662 1493 1333 1173 1053 896 715 599 507 470 401 250 180 168 185 162 112 147 208 129 70 199 104 80 50
3291 3278 3262 3233 3150 2919 2759 2729 2697 2611 2520 2443 2287 2235 2192 2092 1994 1816 1616 1424 1303 1200 1044 794 612 505 466 426 321 228 187 167 175 133 119 231 380 120 149 138 115 84
3294 3304 3315 3290 3171 3015 2810 2687 2633 2649 2615 2546 2414 2220 2153 2138 2068 1948 1760 1589 1430 1306 1127 871 620 521 478 476 426 333 237 213 212 198 154 169 167 211 153 154 142 111
3294 3276 3350 3340 3246 3079 2877 2700 2538 2503 2633 2620 2526 2341 2200 2226 2172 2066 1912 1756 1598 1411 1198 930 671 577 492 483 485 415 291 391 338 235 212 215 172 186 154 162 163 160
3204 3249 3342 3431 3342 3173 2955 2762 2596 2465 2597 2682 2600 2478 2243 2227 2280 2174 2070 1932 1772 1582 1335 1067 788 673 590 492 334 416 492 588 406 245 284 317 357 312 181 142 163 220
3156 3192 3308 3487 3509 3387 3201 2988 2811 2639 2717 2841 2717 2559 2350 2245 2352 2277 2164 2040 1898 1742 1538 1283 1010 735 710 407 481 511 623 590 314 275 266 356 443 481 388 152 120 140
3174 3172 3263 3481 3600 3596 3445 3227 3015 2835 2783 2955 2978 2767 2490 2379 2456 2418 2328 2206 2060 1894 1689 1474 1227 967 744 519 555 573 765 729 658 740 384 221 371 287 375 330 287 141
3348 3268 3230 3360 3594 3693 3624 3412 3202 2988 2852 2904 3078 3048 2809 2554 2549 2539 2489 2390 2267 2108 1912 1668 1394 1150 925 711 792 882 982 1102 984 688 300 262 270 295 377 377 270 218
3562 3481 3349 3284 3411 3630 3675 3556 3323 3080 2939 2865 3060 3143 3068 2880 2690 2626 2595 2496 2374 2221 2038 1831 1620 1366 1128 998 1109 1143 1158 1063 762 382 599 604 395 406 379 303 249 205
3698 3657 3572 3409 3378 3498 3643 3652 3440 3226 3104 2954 3073 3145 3122 3036 2866 2744 2681 2594 2477 2328 2178 2000 1845 1645 1423 1304 1375 1372 1298 1140 762 657 418 518 465 371 230 257 256 153
3714 3742 3745 3656 3560 3553 3628 3681 3608 3399 3240 3136 3092 3170 3152 3107 3006 2894 2767 2626 2482 2372 2273 2143 2010 1849 1635 1576 1571 1523 1414 1414 1075 707 460 343 291 338 364 360 342 227
3770 3826 3912 3904 3837 3789 3773 3756 3687 3535 3348 3372 3108 3140 3121 3068 2999 2876 2777 2652 2537 2396 2257 2136 2002 1872 1776 1800 1754 1613 1490 1469 1052 816 743 470 403 500 704 669 596 520
3898 4053 4196 4296 4239 4113 3995 3889 3797 3662 3569 3540 3337 3132 2996 2939 2926 2845 2744 2642 2483 2323 2194 2047 2009 2010 2009 1927 1820 1673 1547 1519 1423 970 798 724 553 464 598 685 637 708
4196 4363 4539 4642 4586 4414 4202 4071 3940 3826 3684 3585 3437 3324 3189 3023 2848 2715 2623 2532 2455 2350 2302 2205 2155 2097 1995 1978 1786 1692 1641 1553 1475 1233 889 810 694 545 487 491 895 1915
4579 4675 4750 4784 4700 4576 4386 4202 4032 3885 3750 3623 3492 3367 3249 3161 3049 2962 2864 2725 2627 2482 2383 2297 2191 2057 1901 1802 1801 1689 1596 1531 1407 1305 1130 905 741 499 612 459 540 1038
4857 4817 4816 4780 4704 4635 4487 4346 4165 3979 3778 3633 3505 3394 3329 3235 3146 3019 2899 2790 2617 2483 2439 2302 2149 1998 1843 1685 1566 1365 1324 1382 1316 1196 1105 934 692 543 402 312 331 597

ECMWFNIL_con_mucape_030.txt.gz
CAPE
1594 1493 1539 1700 1893 1731 1695 1768 1672 1625 1627 1724 1729 1734 1722 1666 1606 1469 1248 1057 901 745 741 658 478 400 40 10 38 46 89 71 76 32 12 42 0 8 5 0 16 0
1759 1727 1762 1742 1803 1869 1803 1742 1712 1717 1715 1679 1662 1644 1631 1591 1544 1346 1142 1063 918 798 669 647 538 339 21 19 19 45 67 58 51 75 44 10 1 0 3 0 0 0
1923 1902 1943 1936 1860 1888 1917 1887 1783 1775 1756 1693 1620 1577 1563 1483 1428 1233 1114 1100 959 838 773 612 590 278 6 20 23 56 53 28 26 51 52 7 0 0 0 0 0 0
2067 2041 2086 2080 1988 1944 1956 1945 1913 1893 1832 1666 1574 1512 1444 1376 1293 1224 1174 1326 1039 908 862 661 544 438 239 13 32 39 36 10 18 26 24 21 10 0 0 0 0 0
2125 2174 2193 2203 2127 2024 2022 2016 1968 1960 1833 1574 1451 1382 1361 1364 1256 1223 1200 1190 1100 1050 974 749 667 580 266 133 14 24 31 0 1 8 0 2 7 13 0 0 0 0
2163 2239 2286 2298 2253 2144 2075 2068 2037 1944 1777 1516 1383 1384 1291 1406 1284 1216 1226 1201 1137 1077 1005 924 947 724 436 278 0 2 25 5 0 2 0 0 0 6 4 0 0 0
2322 2315 2370 2372 2350 2252 2141 2089 2008 1880 1712 1551 1425 1490 1346 1362 1326 1267 1263 1234 1184 1102 1034 953 910 741 487 289 0 0 2 10 0 1 12 2 0 0 0 0 0 0
2520 2459 2441 2438 2433 2392 2252 2103 1991 1877 1751 1617 1558 1514 1526 1419 1353 1294 1294 1298 1274 1219 1047 812 625 456 272 29 2 0 0 7 2 2 4 17 18 0 0 0 0 0
2678 2618 2561 2517 2471 2473 2390 2208 1997 1853 1694 1732 1696 1605 1584 1557 1461 1387 1365 1383 1321 1258 1075 740 527 394 181 33 16 0 0 2 12 6 4 2 11 26 7 0 0 0
2777 2718 2654 2598 2538 2504 2479 2344 2079 1897 1766 1787 1825 1764 1680 1637 1538 1436 1372 1309 1241 1185 1067 861 693 606 476 54 39 7 0 0 6 5 5 2 0 5 9 0 0 0
2836 2780 2703 2652 2618 2550 2526 2450 2237 2020 1909 1838 1883 1893 1816 1715 1641 1524 1416 1327 1232 1164 1082 966 840 740 643 493 178 40 12 5 10 5 0 0 0 0 73 0 0 0
2878 2838 2757 2692 2651 2601 2528 2474 2355 2155 2079 1976 1891 1944 1958 1852 1774 1701 1619 1492 1349 1214 1084 994 892 820 739 638 522 115 38 10 7 10 6 66 205 0 9 1 0 0
2879 2869 2826 2738 2679 2630 2546 2475 2406 2261 2162 2132 2027 1946 1970 1987 1898 1818 1762 1714 1551 1242 1080 1002 926 874 825 746 647 405 54 38 9 25 206 225 165 96 206 178 38 0
2886 2880 2858 2788 2715 2640 2566 2481 2439 2362 2206 2170 2159 2062 1972 1970 1968 1905 1848 1764 1693 1439 1160 1030 975 912 859 784 698 612 434 56 223 314 371 377 337 353 262 272 267 241
2917 2886 2860 2821 2757 2670 2584 2497 2439 2410 2323 2198 2166 2176 2090 1988 1953 1937 1901 1829 1735 1584 1424 1241 1139 1064 984 889 782 711 674 516 284 316 382 512 599 506 386 359 312 262
2971 2932 2878 2827 2787 2721 2640 2548 2454 2410 2394 2307 2205 2170 2165 2117 2031 1968 1934 1895 1819 1712 1594 1477 1370 1253 1144 1030 930 867 838 725 422 416 550 697 810 439 355 440 347 240
3013 2994 2912 2847 2808 2752 2700 2618 2504 2408 2384 2361 2298 2219 2154 2127 2095 2057 2017 1962 1909 1819 1742 1651 1559 1425 1287 1164 1097 1065 1024 907 636 686 838 923 900 414 465 475 340 269
3026 3012 2956 2895 2832 2799 2745 2688 2588 2474 2377 2328 2317 2287 2235 2176 2126 2108 2094 2068 2032 1972 1882 1774 1657 1533 1445 1355 1302 1251 1178 1065 858 1038 1091 1071 1048 843 602 394 371 325
3038 2999 2967 2913 2875 2849 2800 2722 2651 2559 2433 2336 2294 2278 2288 2276 2236 2164 2132 2104 2091 2062 2012 1916 1806 1687 1592 1537 1502 1441 1353 1212 1198 1273 1240 1161 1118 805 571 442 343 372
3056 3009 2963 2912 2875 2854 2818 2770 2702 2614 2500 2398 2313 2272 2293 2328 2316 2264 2202 2170 2161 2138 2106 2022 1974 1902 1814 1732 1662 1598 1524 1428 1478 1505 1453 1378 1225 814 679 663 481 344
3101 3054 2998 2930 2876 2852 2846 2828 2780 2690 2582 2497 2410 2347 2346 2374 2380 2351 2287 2238 2219 2228 2220 2181 2103 2054 1988 1922 1866 1786 1813 1804 1699 1591 1478 1359 1280 1056 859 674 581 409
3112 3097 3053 2972 2896 2841 2850 2880 2865 2816 2735 2632 2546 2477 2465 2499 2474 2424 2390 2361 2341 2314 2268 2253 2189 2133 2100 2050 2064 2151 2119 2041 1871 1656 1526 1446 1367 1272 965 749 598 516
3166 3130 3094 3027 2944 2853 2836 2897 2949 2949 2899 2808 2715 2659 2638 2675 2685 2639 2572 2511 2491 2455 2424 2398 2349 2367 2373 2412 2459 2415 2282 2143 1939 1764 1606 1434 1315 1247 1022 772 590 498
3216 3180 3130 3057 2973 2895 2838 2916 3002 3047 3043 2972 2914 2846 2803 2815 2866 2874 2855 2837 2814 2788 2736 2735 2757 2735 2719 2722 2651 2508 2357 2168 2004 1784 1664 1513 1318 1159 983 848 652 874
3238 3240 3187 3116 3053 2985 2882 2916 3033 3141 3158 3108 3082 3024 2994 2988 2986 2996 3030 3041 3050 3041 3012 3024 3004 2950 2903 2846 2707 2522 2292 2113 1915 1761 1602 1426 1336 1216 1051 846 733 1361
3203 3307 3296 3246 3187 3092 2992 2981 3056 3155 3211 3214 3225 3202 3160 3110 3082 3081 3103 3125 3122 3130 3132 3120 3103 3037 2938 2816 2613 2455 2236 2056 1898 1711 1568 1431 1315 1161 1038 786 582 484

ECMWFNIL_con_mucape_033.txt.gz
CAPE
1207 1168 1169 1145 1111 1068 1076 1144 1196 1282 1476 1666 1725 1773 1810 1866 1975 2123 2162 2055 1849 1611 1163 666 320 38 7 0 0 0 0 0 0 0 0 0 0 0 0 0 0 0
1266 1238 1238 1238 1210 1137 1087 1123 1190 1243 1368 1553 1654 1666 1692 1733 1874 1999 1991 1893 1750 1539 1213 809 342 43 5 0 0 0 0 0 0 5 0 0 0 0 0 0 0 0
1312 1290 1272 1276 1272 1228 1189 1190 1216 1234 1318 1454 1571 1575 1610 1691 1828 1877 1822 1743 1629 1493 1262 972 731 510 430 58 0 0 0 0 0 0 0 0 0 0 0 0 0 0
1369 1331 1304 1283 1261 1253 1275 1278 1316 1296 1310 1392 1470 1529 1553 1658 1756 1772 1721 1647 1553 1432 1275 1066 908 738 588 466 0 0 0 0 0 0 3 0 0 0 0 0 0 0
1437 1408 1363 1328 1289 1249 1308 1350 1383 1395 1374 1346 1363 1448 1538 1615 1677 1682 1652 1615 1519 1365 1260 1117 944 842 701 605 450 98 0 0 0 0 0 0 0 0 0 0 0 0
1484 1469 1446 1400 1347 1290 1279 1398 1444 1450 1470 1431 1388 1452 1538 1604 1636 1623 1612 1594 1536 1416 1286 1149 950 785 710 672 580 467 280 0 0 0 0 0 0 0 0 0 0 0
1535 1528 1520 1474 1428 1370 1313 1372 1474 1511 1517 1534 1526 1530 1560 1620 1636 1594 1558 1546 1533 1444 1297 1170 1063 774 684 674 636 503 166 0 0 0 0 0 0 0 0 0 0 0
1557 1604 1594 1567 1546 1531 1484 1431 1460 1516 1579 1603 1569 1563 1566 1590 1588 1561 1532 1520 1503 1436 1282 1174 1128 893 662 598 588 441 12 0 0 0 0 0 0 0 0 0 0 0
1562 1640 1690 1697 1674 1674 1652 1599 1568 1564 1543 1586 1626 1639 1610 1591 1560 1546 1520 1486 1463 1371 1257 1170 1146 1087 747 614 498 382 147 82 48 0 0 0 0 0 0 0 0 0
1616 1640 1730 1786 1790 1794 1788 1748 1692 1677 1639 1619 1637 1635 1638 1628 1598 1560 1487 1434 1382 1302 1233 1195 1157 1130 964 700 495 362 348 395 338 0 0 0 0 0 0 0 0 0
1775 1727 1744 1810 1872 1888 1896 1876 1823 1775 1739 1724 1708 1707 1699 1676 1666 1628 1461 1366 1311 1273 1246 1222 1186 1132 1064 878 650 541 548 535 473 0 0 0 0 0 11 0 0 0
1994 1914 1867 1868 1904 1946 1971 1980 1945 1878 1828 1809 1798 1785 1782 1760 1731 1636 1491 1370 1317 1290 1267 1249 1210 1153 1109 1036 828 662 648 673 591 297 0 0 0 0 0 0 0 11
2131 2115 2068 2034 2007 2018 2030 2054 2052 1990 1927 1892 1873 1874 1850 1824 1791 1704 1553 1435 1382 1346 1326 1307 1256 1194 1180 1176 1064 780 644 614 523 354 0 0 0 0 0 0 233 76
2193 2236 2249 2213 2176 2144 2130 2145 2156 2124 2057 1986 1941 1935 1925 1895 1856 1765 1676 1578 1500 1442 1410 1375 1327 1255 1221 1244 1216 988 720 580 529 487 462 78 0 0 0 193 363 348
2242 2318 2354 2364 2349 2313 2279 2251 2250 2254 2205 2112 2044 2006 1977 1950 1908 1816 1733 1632 1569 1528 1505 1490 1442 1357 1307 1284 1258 1083 878 705 639 641 636 576 220 0 0 312 528 398
2323 2403 2463 2488 2481 2455 2423 2387 2365 2356 2329 2270 2185 2114 2048 1986 1926 1847 1758 1677 1642 1618 1610 1578 1524 1454 1396 1355 1292 1161 981 830 777 773 770 744 689 562 380 524 672 697
2437 2499 2547 2591 2598 2570 2556 2514 2483 2455 2440 2408 2342 2241 2157 2087 1996 1910 1848 1801 1763 1733 1686 1648 1613 1556 1517 1478 1467 1380 1158 976 900 884 868 844 811 766 654 764 830 708
2555 2590 2636 2676 2674 2670 2643 2612 2583 2544 2505 2476 2422 2342 2264 2192 2116 2012 1933 1909 1893 1874 1818 1760 1701 1653 1652 1644 1662 1624 1485 1259 1074 996 999 1009 852 793 880 941 834 753
2669 2686 2728 2747 2750 2738 2722 2688 2654 2598 2554 2502 2457 2388 2298 2241 2201 2124 2062 2014 1981 1950 1935 1919 1874 1794 1750 1751 1768 1742 1662 1533 1412 1336 1296 1261 1091 1194 1118 1122 1130 905
2767 2792 2815 2816 2814 2807 2788 2764 2718 2658 2589 2532 2471 2399 2324 2268 2217 2171 2138 2104 2060 2034 2018 1998 1970 1934 1913 1882 1856 1796 1732 1673 1627 1582 1526 1403 1458 1509 1416 1459 1392 1158
2876 2874 2888 2888 2882 2874 2847 2819 2783 2724 2645 2557 2466 2404 2369 2314 2248 2200 2191 2180 2156 2147 2111 2071 2069 2024 1997 1976 1964 1938 1872 1815 1782 1720 1542 1672 1768 1739 1658 1629 1588 1406
2963 2962 2964 2959 2943 2933 2901 2862 2828 2775 2696 2594 2504 2444 2381 2340 2295 2260 2245 2214 2202 2214 2196 2193 2157 2105 2080 2060 2038 2029 2004 1953 1909 1807 1830 1982 2003 1920 1772 1705 1619 1476
3015 3011 3004 2998 2982 2968 2946 2906 2852 2805 2731 2640 2576 2490 2424 2367 2344 2358 2314 2294 2294 2276 2259 2250 2210 2198 2178 2156 2158 2165 2130 2081 2024 1978 2111 2198 2137 1963 1949 1871 1645 1412
3034 3035 3032 3018 3003 2992 2980 2951 2887 2829 2783 2726 2673 2578 2487 2406 2367 2368 2383 2389 2378 2368 2374 2361 2346 2338 2300 2292 2298 2285 2256 2217 2130 2317 2390 2415 2343 2160 2079 1984 1678 1319
3020 3052 3059 3044 3026 3026 3000 2972 2933 2897 2856 2818 2768 2677 2583 2490 2422 2398 2400 2394 2408 2427 2441 2448 2458 2450 2418 2410 2406 2418 2392 2356 2536 2618 2622 2500 2348 2246 2124 1901 1546 1220
2964 3044 3064 3044 3034 3030 2995 2970 2950 2924 2918 2872 2838 2777 2716 2624 2527 2454 2416 2402 2437 2472 2500 2527 2521 2519 2508 2498 2514 2538 2560 2792 2882 2829 2759 2622 2402 2218 2024 1772 1563 1408

ECMWFNIL_con_mucape_036.txt.gz
CAPE
1195 1138 1057 960 906 899 902 932 979 1031 1068 1168 1336 1496 1680 1857 1907 1935 2028 2052 2070 2102 2147 2161 2154 2116 1940 1585 942 71 9 0 8 3 4 6 3 2 0 0 0 0
1200 1161 1102 1040 977 936 912 903 940 967 1024 1115 1284 1402 1561 1701 1806 1904 1962 2008 2088 2117 2164 2163 2115 1995 1637 1170 638 0 2 8 8 19 4 3 4 0 0 0 0 0
1175 1168 1140 1101 1064 1018 971 941 928 950 961 1020 1198 1354 1468 1598 1698 1840 1901 1958 1993 2063 2142 2119 2040 1908 1626 987 263 6 9 5 12 17 18 3 5 0 0 0 0 0
1162 1160 1144 1131 1090 1051 1022 989 969 971 954 960 1132 1324 1423 1528 1626 1734 1812 1874 1897 1940 2028 2044 1964 1853 1641 1113 562 258 15 10 18 18 29 14 4 0 0 0 0 0
1172 1162 1146 1128 1112 1070 1047 1024 1010 999 995 989 1056 1264 1431 1468 1565 1646 1731 1796 1820 1868 1918 1928 1860 1792 1641 1240 611 25 18 19 13 12 22 28 10 3 0 0 0 0
1176 1160 1151 1136 1106 1104 1074 1060 1048 1048 1048 1052 1044 1216 1338 1430 1518 1600 1671 1706 1752 1807 1846 1827 1765 1710 1582 1327 847 406 288 249 19 10 14 28 23 8 3 0 0 0
1188 1166 1161 1142 1135 1116 1108 1100 1104 1112 1103 1111 1082 1144 1280 1363 1468 1554 1612 1621 1650 1689 1756 1772 1722 1645 1536 1318 1020 780 588 490 446 122 19 20 25 8 2 0 0 0
1220 1192 1180 1170 1163 1156 1148 1151 1172 1192 1200 1175 1144 1100 1213 1306 1399 1506 1559 1582 1581 1614 1684 1734 1692 1618 1492 1315 1155 988 840 720 656 577 402 17 10 18 6 0 0 0
1241 1236 1230 1226 1211 1198 1193 1194 1209 1240 1250 1248 1211 1158 1172 1248 1341 1427 1504 1533 1543 1581 1640 1679 1654 1606 1523 1416 1244 1122 985 827 749 701 626 532 122 11 7 1 0 0
1256 1268 1279 1279 1272 1257 1243 1238 1238 1256 1296 1299 1300 1245 1232 1266 1315 1387 1446 1482 1510 1560 1608 1628 1621 1572 1531 1499 1393 1231 1095 888 700 628 650 634 527 34 0 0 0 0
1293 1308 1324 1332 1336 1330 1324 1300 1292 1296 1306 1346 1344 1339 1323 1333 1344 1376 1428 1463 1504 1562 1599 1622 1622 1586 1542 1520 1454 1313 1192 1068 797 578 550 588 552 307 7 0 0 1
1308 1343 1371 1402 1410 1419 1406 1392 1393 1374 1376 1377 1376 1398 1405 1399 1420 1424 1458 1507 1553 1586 1601 1613 1586 1551 1540 1513 1466 1355 1234 1184 1098 787 496 448 405 4 4 0 0 0
1292 1346 1408 1454 1535 1498 1494 1494 1486 1481 1468 1454 1438 1444 1454 1464 1458 1465 1471 1506 1562 1585 1606 1597 1550 1515 1502 1478 1440 1344 1243 1198 1167 1059 754 422 324 7 0 2 0 0
1428 1426 1409 1457 1526 1652 1647 1582 1584 1582 1571 1546 1543 1515 1502 1488 1496 1498 1511 1508 1530 1550 1559 1550 1521 1505 1486 1458 1421 1344 1268 1242 1219 1147 988 696 435 124 114 472 493 398
1608 1592 1564 1586 1641 1694 1744 1748 1738 1710 1680 1667 1646 1637 1600 1564 1530 1497 1494 1502 1508 1517 1524 1519 1530 1534 1530 1474 1410 1348 1320 1318 1304 1221 1115 1008 835 599 516 546 582 485
1737 1786 1780 1743 1726 1740 1794 1837 1804 1830 1794 1787 1768 1749 1717 1684 1634 1585 1540 1521 1508 1519 1543 1554 1565 1568 1571 1513 1421 1368 1366 1376 1369 1310 1207 1133 1086 962 774 635 601 561
1802 1897 1950 1931 1898 1876 1864 1891 1907 1882 1884 1885 1870 1840 1806 1769 1723 1684 1648 1603 1578 1548 1562 1578 1597 1612 1607 1556 1485 1443 1426 1433 1429 1386 1260 1150 1106 1091 1004 808 678 648
1852 1943 2031 2082 2069 2051 2022 1988 1990 2000 2027 1953 1946 1920 1882 1842 1811 1774 1726 1696 1661 1649 1650 1624 1609 1608 1612 1594 1559 1520 1504 1519 1524 1490 1369 1189 1119 1118 1047 905 792 754
1895 1982 2073 2155 2195 2204 2172 2139 2118 2104 2102 2091 2019 2005 1966 1922 1882 1844 1822 1789 1762 1740 1735 1720 1701 1677 1656 1639 1623 1586 1565 1578 1589 1573 1486 1347 1296 1266 1231 1162 1032 968
1950 2022 2109 2188 2262 2288 2286 2274 2245 2225 2199 2111 2110 2079 2042 2008 1964 1928 1905 1890 1864 1846 1827 1759 1748 1757 1753 1720 1667 1619 1597 1627 1658 1626 1544 1470 1446 1446 1474 1465 1361 1265
2040 2101 2158 2223 2291 2340 2362 2375 2356 2345 2249 2208 2180 2165 2146 2119 2073 2036 2020 2003 1965 1949 1919 1889 1836 1805 1798 1743 1703 1678 1661 1679 1694 1667 1625 1594 1588 1605 1641 1618 1531 1474
2156 2198 2240 2287 2340 2393 2434 2450 2450 2440 2355 2325 2293 2276 2251 2253 2216 2149 2137 2097 2072 2052 2024 1996 1926 1866 1839 1806 1776 1767 1744 1769 1792 1786 1761 1732 1724 1751 1738 1668 1619 1606
2277 2312 2347 2386 2417 2451 2500 2530 2527 2470 2435 2417 2398 2394 2346 2321 2304 2278 2255 2246 2189 2149 2120 2066 2013 1974 1934 1906 1893 1875 1852 1876 1897 1885 1855 1846 1862 1844 1799 1756 1692 1719
2392 2389 2406 2456 2512 2536 2576 2602 2573 2533 2520 2502 2482 2462 2468 2409 2396 2388 2382 2349 2275 2239 2204 2126 2063 2040 2026 1997 1980 1956 1938 1954 1964 1958 1935 1938 1940 1905 1893 1870 2013 1992
2534 2544 2528 2537 2628 2643 2642 2666 2607 2661 2615 2582 2559 2546 2526 2476 2480 2439 2447 2422 2362 2275 2232 2202 2134 2109 2080 2060 2010 2003 1997 2007 2020 2002 1985 1975 1990 2032 1980 2075 2247 2198
2645 2696 2718 2720 2748 2742 2665 2659 2668 2670 2670 2656 2645 2640 2594 2562 2555 2506 2529 2468 2424 2368 2290 2226 2174 2152 2125 2090 2066 2063 2056 2086 2085 2073 2082 2057 2094 2142 2243 2330 2423 2371